Location: Beuvrequen
(50.8014°N, 1.6652°E)
Time: 03:53:27
(UTC+00:00)

HJ-1C - Pass Details

Date: 16 October 2021
Orbit: 423 x 433 km, 97.1° (Epoch: 28 November)

Event Time Altitude Azimuth Distance (km) Brightness Sun altitude
Exits shadow 18:52:29 12° 179° (S) 1,423 5.8 -18.7°
Maximum altitude 18:55:28 59° 259° (W) 499 3.8 -19.2°
Drops below altitude 10° 18:58:42 10° 340° (NNW) 1,529 6.5 -19.7°
Sets 19:00:45 0° 344° (NNW) 2,403 7.4 -20.0°
